sat.trackr.live / text

‹ back to catalog

ONEWEB-0017

NORAD 45132 · 2020-008B

PAYLOAD ACTIVE UNKNOWN

§ Identity

Operator
Country
UK
Launch date
2020-02-06
Launch site
TYMSC
Launch vehicle
Mass (kg)
RCS (m²)

Purposes: comms

External: N2YO · Heavens-Above · Gunter

§ Orbital elements

Epoch: 2026-05-25T02:13:10.159680Z

Period
109.89 min
Inclination
87.8849°
Eccentricity
0.0001618
Mean motion
13.10371737 rev/d
Perigee alt
1,220.5 km
Apogee alt
1,223.0 km
Semi-major
7,599.9 km
B*
1.4537e-3
RAAN
40.8663°
Arg perigee
78.1412°
Mean anomaly
281.9896°
Rev number
30,492

§ Raw data

ONEWEB-00171 45132U 20008B   26145.09247870  .00000520  00000+0  14537-2 0  99982 45132  87.8849  40.8663 0001618  78.1412 281.9896 13.10371737304921

JSON: /api/v1/satellites/45132 · /tle

For live sub-satellite position, see the globe view (requires WebGL).

§ Visibility from observer

Set your observer location to see the next 7 days of passes ≥ 10°. The values pass through the URL so the page stays shareable.

No JS? Fill the form by hand. The geolocation button needs JavaScript.